Regional Weather Roundup
Issued by NWS

Home | Current Version | Previous Version | Graphics & Text | Print | Product List | Glossary On
Versions: 1 2 3 4 5 6 7 8 9 10 11 12 13 14 15 16 17 18 19 20 21 22 23 24 25 26 27 28 29 30 31 32 33 34 35 36 37 38 39 40 41 42 43 44 45 46 47 48 49 50
000
ASUS45 KCYS 271710
RWRWY

WYOMING REGIONAL WEATHER ROUNDUP
NATIONAL WEATHER SERVICE CHEYENNE WY
1000 AM MST MON FEB 27 2017

NOTE:  "FAIR" INDICATES FEW OR NO CLOUDS BELOW 12,000 FEET
WITH NO SIGNIFICANT WEATHER AND/OR OBSTRUCTIONS TO VISIBILITY.

WYZ001-271800-
YELLOWSTONE NATIONAL PARK

CITY           SKY/WX    TMP DP  RH WIND       PRES   REMARKS
LK YELLOWSTONE   N/A     11   8  88 CALM      29.54R
W YELLOWSTONE  NOT AVBL

$$
WYZ002>013-054>058-071-098>099-271800-
NORTHERN WYOMING

CITY           SKY/WX    TMP DP  RH WIND       PRES   REMARKS
JACKSON        SUNNY     16  12  86 CALM      29.57R
CODY           FAIR      28  14  55 NE9       29.55S WCI  19
GREYBULL       FAIR      27  15  61 CALM      29.59S
WORLAND        FAIR      27  14  58 SW3       29.59R
SHERIDAN       FAIR      24  18  77 W13G20    29.61R WCI  12
BUFFALO        FAIR      28   8  43 N8        29.57R WCI  20
GILLETTE       CLOUDY    32  18  56 SW9       29.57S WCI  24
HULETT         CLOUDY    34  12  40 SW13      29.60R WCI  25
NEWCASTLE      PTSUNNY   28  18  64 SE10      29.64R WCI  19

$$
WYZ014>020-022>026-101>103-271800-
CENTRAL WYOMING

CITY           SKY/WX    TMP DP  RH WIND       PRES   REMARKS
BIG PINEY      PTSUNNY   11   8  88 SW3       29.59R
PINEDALE       CLOUDY    14  10  85 N7        29.58R WCI   4
DUBOIS         CLOUDY    18   9  68 W10       29.50F WCI   6
LANDER         PTSUNNY   17  13  84 SE5       29.56F WCI  10
RIVERTON       FAIR      18  10  71 SW9       29.57F WCI   7
CASPER         CLOUDY    25  20  81 S6        29.59R WCI  18
DOUGLAS        CLOUDY    24  14  65 W8        29.61R WCI  15

$$
WYZ021-027>030-104>119-271800-
SOUTHERN WYOMING

CITY           SKY/WX    TMP DP  RH WIND       PRES   REMARKS
EVANSTON       LGT SNOW  20  17  88 CALM      29.58S FOG
FORT BRIDGER   LGT SNOW  23  23  99 CALM      29.62S
ROCK SPRINGS   SNOW      21  17  84 W9        29.61R VSB 1/2 WCI  11
DIXON          FLURRIES  33  24  71 SW17G29   29.62S WCI  22
RAWLINS        CLOUDY    29  22  75 SW17      29.55S WCI  17
SARATOGA       CLOUDY    32  25  74 S14G24    29.58R WCI  22
LARAMIE        FAIR      32  19  58 SW22G32   29.55F WCI  19
CHEYENNE       FAIR      29   9  43 S15       29.62F WCI  18
TORRINGTON     PTSUNNY   18   9  68 CALM      29.65F
PINE BLUFFS    FAIR      32  18  55 S6G21     29.66F WCI  26

$$



USA.gov is the U.S. government's official web portal to all federal, state and local government web resources and services.